AIZ161 LLBG-LCLK

Flight info

Callsign AIZ161
Flight time 0h 38m
Altitude 24000
Route DAFNA DCT VELOX N131 EMEDA
Aircraft A320/M-SDE3FGHIRWY/LB1

Departure

Time 2026-05-04 18:36
Airport Ben Gurion International Airport (LLBG)

Arrival

Time 2026-05-04 19:14
Airport Larnaca International Airport (LCLK)
Time Latitude Longitude Altitude Speed Heading
2026-05-04 18:00 32.00252 34.87885 120 ft 0 kts 121°
2026-05-04 18:24 32.00263 34.87864 119 ft 4 kts 122°
2026-05-04 18:25 32.00277 34.87837 119 ft 4 kts 116°
2026-05-04 18:25 32.00285 34.87809 119 ft 4 kts 79°
2026-05-04 18:25 32.00281 34.87797 118 ft 1 kts 31°
2026-05-04 18:29 32.00283 34.87799 119 ft 3 kts 31°
2026-05-04 18:29 32.00330 34.87836 120 ft 12 kts 33°
2026-05-04 18:29 32.00398 34.87887 117 ft 11 kts 28°
2026-05-04 18:29 32.00459 34.87926 117 ft 9 kts 31°
2026-05-04 18:30 32.00557 34.87935 117 ft 6 kts 333°
2026-05-04 18:30 32.00595 34.87930 119 ft 5 kts
2026-05-04 18:30 32.00637 34.87955 120 ft 11 kts 31°
2026-05-04 18:31 32.00701 34.88003 117 ft 10 kts 31°
2026-05-04 18:31 32.00758 34.88043 118 ft 10 kts 31°
2026-05-04 18:31 32.00844 34.88105 118 ft 15 kts 32°
2026-05-04 18:31 32.00930 34.88167 119 ft 14 kts 32°
2026-05-04 18:32 32.01006 34.88224 118 ft 13 kts 32°
2026-05-04 18:32 32.01090 34.88286 117 ft 23 kts 32°
2026-05-04 18:32 32.01218 34.88377 120 ft 15 kts 33°
2026-05-04 18:32 32.01299 34.88446 119 ft 14 kts 41°
2026-05-04 18:33 32.01363 34.88525 120 ft 13 kts 51°
2026-05-04 18:33 32.01415 34.88610 119 ft 13 kts 58°
2026-05-04 18:33 32.01475 34.88753 116 ft 21 kts 71°
2026-05-04 18:33 32.01504 34.88915 116 ft 19 kts 81°
2026-05-04 18:34 32.01527 34.89063 120 ft 18 kts 80°
2026-05-04 18:34 32.01548 34.89134 118 ft 5 kts 61°
2026-05-04 18:34 32.01585 34.89159 118 ft 10 kts
2026-05-04 18:34 32.01684 34.89144 115 ft 17 kts 349°
2026-05-04 18:35 32.01742 34.89068 120 ft 15 kts 263°
2026-05-04 18:35 32.01697 34.88710 120 ft 82 kts 262°
2026-05-04 18:35 32.01563 34.87799 130 ft 140 kts 261°
2026-05-04 18:35 32.01365 34.86595 566 ft 160 kts 260°
2026-05-04 18:36 32.01072 34.85245 1022 ft 183 kts 257°
2026-05-04 18:36 32.00710 34.83726 1466 ft 204 kts 256°
2026-05-04 18:36 32.00332 34.81996 1852 ft 232 kts 257°
2026-05-04 18:36 31.99939 34.80041 2422 ft 252 kts 258°
2026-05-04 18:37 31.99566 34.78063 3665 ft 245 kts 258°
2026-05-04 18:37 31.99214 34.76093 4704 ft 247 kts 263°
2026-05-04 18:37 31.99362 34.74088 5700 ft 249 kts 286°
2026-05-04 18:37 31.99970 34.72167 6699 ft 251 kts 287°
2026-05-04 18:38 32.00577 34.70256 7545 ft 254 kts 287°
2026-05-04 18:38 32.01193 34.68298 7874 ft 256 kts 287°
2026-05-04 18:38 32.01809 34.66334 7989 ft 256 kts 287°
2026-05-04 18:38 32.02420 34.64368 8006 ft 255 kts 285°
2026-05-04 18:39 32.02724 34.62334 8010 ft 252 kts 271°
2026-05-04 18:39 32.02834 34.60266 8011 ft 253 kts 274°
2026-05-04 18:39 32.03357 34.58286 8011 ft 258 kts 297°
2026-05-04 18:39 32.04600 34.56731 8008 ft 269 kts 321°
2026-05-04 18:40 32.06204 34.55624 8077 ft 270 kts 324°
2026-05-04 18:40 32.07841 34.54529 8694 ft 273 kts 324°
2026-05-04 18:40 32.09502 34.53417 9620 ft 276 kts 324°
2026-05-04 18:40 32.11184 34.52288 10376 ft 285 kts 324°
2026-05-04 18:41 32.12953 34.51089 10849 ft 302 kts 324°
2026-05-04 18:41 32.14825 34.49816 11285 ft 319 kts 324°
2026-05-04 18:41 32.16802 34.48472 11688 ft 336 kts 324°
2026-05-04 18:41 32.18867 34.47075 12241 ft 346 kts 325°
2026-05-04 18:42 32.20942 34.45678 12987 ft 349 kts 324°
2026-05-04 18:42 32.23058 34.44252 13787 ft 352 kts 324°
2026-05-04 18:42 32.25193 34.42812 14487 ft 354 kts 324°
2026-05-04 18:42 32.27340 34.41362 15182 ft 356 kts 323°
2026-05-04 18:43 32.29497 34.39898 15856 ft 359 kts 323°
2026-05-04 18:43 32.31669 34.38421 16535 ft 362 kts 323°
2026-05-04 18:43 32.33855 34.36934 17218 ft 364 kts 322°
2026-05-04 18:43 32.36060 34.35436 17913 ft 367 kts 322°
2026-05-04 18:44 32.38277 34.33930 18555 ft 369 kts 322°
2026-05-04 18:44 32.39757 34.32925 18937 ft 371 kts 321°
2026-05-04 18:44 32.42742 34.30899 19664 ft 375 kts 321°
2026-05-04 18:44 32.45017 34.29352 20184 ft 379 kts 321°
2026-05-04 18:45 32.47309 34.27787 20709 ft 382 kts 321°
2026-05-04 18:45 32.49621 34.26205 21214 ft 385 kts 320°
2026-05-04 18:45 32.51958 34.24620 21707 ft 391 kts 322°
2026-05-04 18:45 32.54515 34.23348 22200 ft 407 kts 333°
2026-05-04 18:46 32.57338 34.22636 22675 ft 424 kts 343°
2026-05-04 18:46 32.60300 34.22309 23121 ft 430 kts 344°
2026-05-04 18:46 32.63288 34.21983 23544 ft 433 kts 344°
2026-05-04 18:46 32.66256 34.21654 23886 ft 436 kts 344°
2026-05-04 18:47 32.69278 34.21312 24006 ft 438 kts 344°
2026-05-04 18:47 32.72348 34.20953 24035 ft 449 kts 344°
2026-05-04 18:47 32.75484 34.20579 24035 ft 455 kts 344°
2026-05-04 18:47 32.78636 34.20212 24034 ft 455 kts 344°
2026-05-04 18:48 32.81790 34.19856 24029 ft 455 kts 345°
2026-05-04 18:48 32.84942 34.19504 24031 ft 455 kts 345°
2026-05-04 18:48 32.88095 34.19151 24030 ft 455 kts 345°
2026-05-04 18:48 32.91204 34.18799 24029 ft 455 kts 345°
2026-05-04 18:49 32.94350 34.18440 24028 ft 454 kts 345°
2026-05-04 18:49 32.97496 34.18079 24029 ft 454 kts 345°
2026-05-04 18:49 33.00642 34.17717 24032 ft 454 kts 345°
2026-05-04 18:49 33.03785 34.17352 24042 ft 454 kts 345°
2026-05-04 18:50 33.06928 34.16989 24041 ft 454 kts 345°
2026-05-04 18:50 33.10067 34.16627 24043 ft 454 kts 345°
2026-05-04 18:50 33.13209 34.16264 24042 ft 454 kts 345°
2026-05-04 18:50 33.16349 34.15899 24045 ft 453 kts 345°
2026-05-04 18:51 33.19492 34.15536 24042 ft 453 kts 345°
2026-05-04 18:51 33.22590 34.15181 24043 ft 453 kts 345°
2026-05-04 18:51 33.25729 34.14824 24041 ft 453 kts 345°
2026-05-04 18:51 33.28869 34.14466 24041 ft 453 kts 345°
2026-05-04 18:52 33.32003 34.14106 24035 ft 452 kts 345°
2026-05-04 18:52 33.35138 34.13744 24030 ft 452 kts 345°
2026-05-04 18:52 33.38270 34.13383 24030 ft 452 kts 345°
2026-05-04 18:52 33.41402 34.13020 24028 ft 452 kts 345°
2026-05-04 18:53 33.44533 34.12655 24028 ft 452 kts 345°
2026-05-04 18:53 33.47624 34.12298 24021 ft 452 kts 345°
2026-05-04 18:53 33.50753 34.11938 24026 ft 452 kts 345°
2026-05-04 18:53 33.53881 34.11573 24019 ft 452 kts 346°
2026-05-04 18:54 33.57006 34.11208 24017 ft 452 kts 346°
2026-05-04 18:54 33.60136 34.10843 24016 ft 452 kts 346°
2026-05-04 18:54 33.63267 34.10480 24015 ft 452 kts 347°
2026-05-04 18:54 33.66398 34.10119 24015 ft 452 kts 347°
2026-05-04 18:55 33.69530 34.09754 24014 ft 452 kts 347°
2026-05-04 18:55 33.75792 34.09015 23750 ft 459 kts 348°
2026-05-04 18:55 33.78965 34.08644 23518 ft 458 kts 348°
2026-05-04 18:56 33.82077 34.08046 23240 ft 449 kts 341°
2026-05-04 18:56 33.85040 34.06945 22967 ft 443 kts 336°
2026-05-04 18:56 33.87949 34.05723 22698 ft 442 kts 336°
2026-05-04 18:56 33.90843 34.04505 22429 ft 440 kts 336°
2026-05-04 18:57 33.93730 34.03293 22157 ft 439 kts 337°
2026-05-04 18:57 33.96605 34.02089 21897 ft 437 kts 337°
2026-05-04 18:57 33.99435 34.00902 21634 ft 435 kts 337°
2026-05-04 18:57 34.02286 33.99705 21375 ft 433 kts 337°
2026-05-04 18:58 34.05131 33.98512 21112 ft 432 kts 338°
2026-05-04 18:58 34.07940 33.97336 20588 ft 421 kts 338°
2026-05-04 18:58 34.10639 33.96211 19891 ft 400 kts 337°
2026-05-04 18:58 34.13249 33.95118 19229 ft 396 kts 337°
2026-05-04 18:59 34.15846 33.94020 18584 ft 395 kts 337°
2026-05-04 18:59 34.18400 33.92937 17922 ft 393 kts 337°
2026-05-04 18:59 34.20971 33.91849 17311 ft 389 kts 337°
2026-05-04 18:59 34.23516 33.90776 16732 ft 385 kts 337°
2026-05-04 19:00 34.26032 33.89716 16181 ft 381 kts 336°
2026-05-04 19:00 34.28513 33.88666 15646 ft 376 kts 336°
2026-05-04 19:00 34.30969 33.87625 15132 ft 372 kts 336°
2026-05-04 19:00 34.33402 33.86597 14614 ft 369 kts 336°
2026-05-04 19:01 34.35814 33.85579 14103 ft 366 kts 336°
2026-05-04 19:01 34.38178 33.84579 13550 ft 364 kts 336°
2026-05-04 19:01 34.40552 33.83572 12991 ft 360 kts 336°
2026-05-04 19:01 34.42907 33.82573 12399 ft 356 kts 336°
2026-05-04 19:02 34.45233 33.81585 11831 ft 352 kts 336°
2026-05-04 19:02 34.47538 33.80610 11211 ft 350 kts 336°
2026-05-04 19:02 34.49811 33.79639 10791 ft 341 kts 336°
2026-05-04 19:02 34.51965 33.78693 10663 ft 315 kts 335°
2026-05-04 19:03 34.53931 33.77818 10504 ft 289 kts 335°
2026-05-04 19:03 34.55749 33.76999 10082 ft 276 kts 335°
2026-05-04 19:03 34.57547 33.76179 9865 ft 276 kts 334°
2026-05-04 19:03 34.59340 33.75361 9736 ft 275 kts 335°
2026-05-04 19:04 34.61156 33.74642 9601 ft 277 kts 343°
2026-05-04 19:04 34.63089 33.74428 9465 ft 283 kts 358°
2026-05-04 19:04 34.65049 33.74793 9334 ft 288 kts 10°
2026-05-04 19:04 34.66990 33.75392 9203 ft 288 kts
2026-05-04 19:05 34.68930 33.75979 8838 ft 286 kts
2026-05-04 19:05 34.70858 33.76557 8445 ft 284 kts 10°
2026-05-04 19:05 34.72740 33.77120 8022 ft 282 kts 10°
2026-05-04 19:05 34.74641 33.77692 7571 ft 281 kts 10°
2026-05-04 19:06 34.76536 33.78264 7120 ft 280 kts 10°
2026-05-04 19:06 34.78424 33.78834 6668 ft 279 kts 11°
2026-05-04 19:06 34.80307 33.79402 6209 ft 279 kts 11°
2026-05-04 19:06 34.82185 33.79967 5748 ft 277 kts 11°
2026-05-04 19:07 34.84051 33.80528 5325 ft 274 kts 11°
2026-05-04 19:07 34.85899 33.81083 4870 ft 273 kts 11°
2026-05-04 19:07 34.87684 33.81621 4739 ft 251 kts 11°
2026-05-04 19:07 34.89272 33.82105 4671 ft 226 kts 11°
2026-05-04 19:08 34.90729 33.82551 4584 ft 206 kts 10°
2026-05-04 19:08 34.92079 33.82956 4497 ft 198 kts
2026-05-04 19:08 34.93404 33.83077 4275 ft 185 kts 352°
2026-05-04 19:08 34.94643 33.82751 3828 ft 180 kts 335°
2026-05-04 19:09 34.95726 33.82054 3459 ft 173 kts 321°
2026-05-04 19:09 34.96588 33.81094 3147 ft 164 kts 308°
2026-05-04 19:09 34.97207 33.79962 2839 ft 157 kts 295°
2026-05-04 19:09 34.97573 33.78751 2562 ft 153 kts 283°
2026-05-04 19:10 34.97708 33.77492 2312 ft 145 kts 271°
2026-05-04 19:10 34.97624 33.76323 2280 ft 137 kts 261°
2026-05-04 19:10 34.97353 33.75207 2245 ft 138 kts 250°
2026-05-04 19:10 34.96871 33.74198 2187 ft 139 kts 232°
2026-05-04 19:11 34.96233 33.73331 2067 ft 137 kts 232°
2026-05-04 19:11 34.95580 33.72487 1922 ft 136 kts 231°
2026-05-04 19:11 34.94932 33.71670 1766 ft 136 kts 231°
2026-05-04 19:11 34.94271 33.70848 1604 ft 136 kts 230°
2026-05-04 19:12 34.93603 33.70024 1430 ft 137 kts 230°
2026-05-04 19:12 34.92278 33.68397 1097 ft 134 kts 228°
2026-05-04 19:12 34.91619 33.67590 930 ft 135 kts 228°
2026-05-04 19:13 34.90962 33.66781 778 ft 134 kts 227°
2026-05-04 19:13 34.90307 33.65968 608 ft 134 kts 225°
2026-05-04 19:13 34.89643 33.65164 461 ft 134 kts 226°
2026-05-04 19:13 34.88985 33.64356 266 ft 134 kts 226°
2026-05-04 19:14 34.88337 33.63565 104 ft 134 kts 223°
2026-05-04 19:14 34.87698 33.62814 24 ft 115 kts 225°
2026-05-04 19:14 34.87329 33.62344 21 ft 46 kts 230°
2026-05-04 19:14 34.87130 33.62085 24 ft 31 kts 225°
2026-05-04 19:15 34.87003 33.61882 22 ft 30 kts 242°
2026-05-04 19:15 34.86947 33.61686 23 ft 22 kts 256°
2026-05-04 19:15 34.86911 33.61527 22 ft 20 kts 254°
2026-05-04 19:15 34.86866 33.61410 21 ft 12 kts 228°
2026-05-04 19:16 34.86806 33.61331 21 ft 14 kts 227°
2026-05-04 19:16 34.86727 33.61241 22 ft 17 kts 224°
2026-05-04 19:16 34.86651 33.61145 21 ft 11 kts 232°
2026-05-04 19:16 34.86654 33.61060 22 ft 9 kts 310°
2026-05-04 19:17 34.86685 33.61020 22 ft 6 kts 313°
2026-05-04 19:17 34.86713 33.60986 21 ft 5 kts 315°
2026-05-04 19:17 34.86749 33.60942 21 ft 11 kts 315°
2026-05-04 19:17 34.86783 33.60935 21 ft 0 kts 23°
2026-05-04 19:18 34.86787 33.60940 21 ft 4 kts 34°
2026-05-04 19:18 34.86818 33.60975 21 ft 4 kts 45°
2026-05-04 19:18 34.86827 33.60985 21 ft 2 kts 43°
2026-05-04 19:18 34.86831 33.60990 21 ft 0 kts 43°